Regional Weather Roundup
Issued by NWS Sioux Falls, SD

Home | Current Version | Previous Version | Graphics & Text | Print | Product List | Glossary Off
Versions: 1 2 3 4 5 6 7 8 9 10 11 12 13 14 15 16 17 18 19 20 21 22 23 24 25 26 27 28 29 30 31 32 33 34 35 36 37 38 39 40 41 42 43 44 45 46 47 48 49 50

000
ASUS43 KFSD 210502
RWRFSD

WEATHER ROUNDUP FOR SE SOUTH DAKOTA/SW MINNESOTA/NW IOWA
NATIONAL WEATHER SERVICE SIOUX FALLS SD
1200 AM CDT MON AUG 21 2017

NOTE: "FAIR" INDICATES FEW OR NO CLOUDS BELOW 12,000 FEET WITH NO
SIGNIFICANT WEATHER AND OR OBSTRUCTIONS TO VISIBILITY.


SDZ038>040-050-052>070-210600-
SOUTHEAST SOUTH DAKOTA

CITY           SKY/WX    TMP DP  RH WIND       PRES   REMARKS
BROOKINGS      PTCLDY    62  59  90 NE5       30.04
CHAMBERLAIN    CLOUDY    67  60  79 NE6       30.02S
HURON          CLEAR     61  57  87 NE6       30.02S
MADISON        CLOUDY    63  63 100 NE7       30.04S
MITCHELL       PTCLDY    65  60  84 NE5       30.01R
SIOUX FALLS    PTCLDY    68  64  87 E7        30.01F
WINNER         FAIR      68  62  81 E8        30.01F
YANKTON        CLEAR     69  65  86 NE10      29.98F
$$

MNZ071-072-080-081-089-090-097-098-210600-
SOUTHWEST MINNESOTA

CITY           SKY/WX    TMP DP  RH WIND       PRES   REMARKS
FAIRMONT       FOG       68  66  93 N5        30.03F VSB 1
JACKSON        CLOUDY    66  64  94 CALM      30.03F
MARSHALL       CLOUDY    62  61  96 NW6       30.05S
MONTEVIDEO     CLEAR     59  54  82 N3        30.05R
PIPESTONE      CLOUDY    66  63  88 E7        30.04S
REDWOOD FALLS  PTCLDY    65  62  90 CALM      30.04R
TRACY          CLOUDY    64  64  97 CALM      30.05S
WINDOM         CLEAR     66  63  88 NE6       30.04F
WORTHINGTON    CLOUDY    67  65  93 N3        30.04F
$$

IAZ001>003-012>014-020>022-031-032-NEZ013-014-SDZ071-210600-
NORTHWEST IOWA

CITY           SKY/WX    TMP DP  RH WIND       PRES   REMARKS
DENISON        CLOUDY    73  68  83 NE16      30.01R
ESTHERVILLE    CLEAR     68  68 100 NE7       30.01F
ORANGE CITY    CLOUDY    73  70  88 NE6       29.98F
SHELDON        CLOUDY    70  66  88 NE7       29.98F
SIOUX CITY     CLOUDY    74  69  85 SE6       29.95F
SPENCER        PTCLDY    70  68  93 NE7       30.00F
STORM LAKE     CLOUDY    73  70  88 E5        29.97F
$$

ABBREVIATIONS USED IN REMARKS
   TC - TEMPERATURE IN CELSIUS
  WCI - WIND CHILL INDEX
   HX - HEAT INDEX
  VSB - VISIBILITY




USA.gov is the U.S. government's official web portal to all federal, state and local government web resources and services.